KUIPER-00562

导读

KUIPER-00562(NORAD编号69270)是美国亚马逊公司柯伊伯(Kuiper)低轨互联网星座的组成卫星,运行于近地轨道。该星座核心目标为全球提供高带宽、低延迟的互联网接入服务,重点覆盖偏远乡村、海上等网络建设薄弱区域,同时可向企业、政府机构提供定制化通信支持,还可结合亚马逊云计算能力适配远程教育、远程办公、应急通信等场景。 截至2025年9月,柯伊伯星座已完成多次发射任务,在轨卫星规模持续扩大,后续将逐步启动商用服务,助力全球数字普惠进程。

基本信息
目录编号:
69270
目录名称:
KUIPER-00562
国际标识:
2026-118D
轨道中心:
EARTH
卫星名称:
KUIPER-00562
卫星全名:
KUIPER-00562
卫星状态:
在轨 (已飞行106 天)
发射日期:
2026-05-29 UTC
国别 :
美国 (US)
星等 :
--
该卫星已列入 空间交会检测服务 Space Conjunction Data Service (SCDS) ,当前飞行风险评估等级: 无高风险
轨道信息
数据来源 国际轨道数据 AOE轨道数据
星历时间 2026-09-11T21:41:40+0800
14小时前
查看轨道信息
2026-09-10T14:00:00+0800
1天前
查看轨道信息
半长轴 7007.524km 7007.563km
偏心率 0.0000521 0.0000618
轨道倾角 51.904° 51.906°
近地点辐角 142.538° 145.981°
升交点赤经 8.615° 14.453°
平近点角 217.561° 13.776°
近地点 629.021km 628.992km
远地点 629.753km 629.86km
周期 97.299分钟 97.299分钟
每日圈数 14.799803 14.79968
详细信息
使用方式:
暂无
2D轨道图
3D轨道图
轨道高度分析图
轨道倾角分析图
轨道综合分析图
查看轨道综合分析图
交会数据列表
事件ID 空间交会对象 最接近时刻(TCA) 交会距离 交会风险概率(CRP) 交会风险指数(CRI) 操作
CDM_260912-031102-714106-927027
PSLV DEB (27141)
2026-09-12T
03:11:38+0000
2.337 km
极远距离
1.442907E-6 低风险 0.38
与全量物体交会距离演化趋势
与全量物体交会风险概率演化趋势